Wind_Speed
13 12 14 15 16 17 18 20 20 19 19 18 18 18 18 18 18 17 16 15 14 13 14 15 16 17 19 20 20 19 19 18 18 19 19 19 17 15 14 13 12 11 10 9 8 7 6 6 6 6 7 7 7 7 7 6 7 8 10 11 10 9 8 8 8 8 8 8 7 6 5 4 3 3 2 2 2 2 2 2 2 2 3 3 2
13 13 15 16 17 18 19 20 20 20 19 19 18 18 18 18 17 17 16 15 14 13 14 15 16 17 19 20 20 19 18 19 19 20 20 19 18 16 14 13 12 11 10 9 8 7 7 7 7 7 7 8 8 8 8 7 7 8 9 10 9 8 8 8 8 7 8 7 6 5 4 4 3 3 2 2 2 1 1 1 1 2 2 2 2
13 15 16 16 18 18 19 19 20 20 20 19 19 18 18 18 17 17 16 14 14 13 14 15 16 17 18 19 19 18 18 19 20 20 20 19 18 16 14 12 12 11 10 8 7 7 7 7 7 8 8 8 8 8 8 8 8 8 9 11 10 10 9 8 7 6 6 6 6 5 5 4 4 3 2 2 1 1 0 0 1 1 1 2 1
14 15 16 17 18 18 18 19 19 20 19 19 19 18 18 17 17 16 15 14 14 13 14 15 17 17 18 18 19 18 19 20 20 20 20 19 18 17 15 13 12 11 10 8 8 8 7 7 8 8 8 8 8 8 8 8 8 9 9 10 11 11 9 8 6 5 5 5 5 5 5 4 3 3 2 1 0 0 1 1 1 1 1 1 1
13 15 16 16 17 17 18 18 19 19 19 19 18 18 17 17 16 16 15 14 14 14 15 16 17 17 18 18 18 19 19 19 19 20 20 20 19 18 16 14 12 11 10 9 8 8 8 8 8 8 8 8 8 8 8 8 8 9 9 10 10 10 9 8 6 5 5 4 4 4 4 3 3 2 1 1 1 2 2 1 1 1 1 1 1
13 14 15 16 16 17 17 17 18 19 18 18 17 17 17 16 16 15 15 14 14 14 15 16 17 17 17 18 18 18 19 19 20 20 21 21 20 19 17 14 12 11 10 9 9 9 9 9 9 9 9 8 8 8 8 8 8 8 9 9 9 9 8 7 6 5 4 3 4 4 3 3 2 1 1 1 2 2 2 2 2 2 2 1 1
13 13 14 15 15 16 16 17 17 18 18 17 16 16 16 15 15 15 14 14 14 14 15 16 17 17 18 18 18 18 19 20 20 21 21 21 21 20 17 14 12 11 10 9 9 9 9 9 9 9 9 9 8 8 7 8 8 8 9 9 9 8 7 6 5 4 3 3 3 3 3 3 2 1 1 2 2 3 3 3 3 3 2 2 2
13 14 14 14 15 15 15 16 17 17 17 16 16 16 15 15 15 14 14 13 13 13 14 16 17 17 18 18 18 18 19 20 21 21 22 22 22 20 17 14 12 11 10 9 9 9 9 9 10 10 10 9 8 8 7 7 7 8 9 9 7 6 6 5 5 4 4 3 3 3 3 2 2 1 1 2 3 3 4 4 3 3 3 3 2
14 14 13 14 14 14 14 15 15 15 16 15 15 15 15 14 14 13 13 12 12 13 14 16 17 17 17 18 18 18 19 20 21 21 22 22 22 20 17 14 12 11 10 9 9 9 9 9 10 10 10 9 8 8 7 7 7 8 9 8 6 5 5 5 5 4 4 3 2 2 2 2 2 2 2 3 4 4 5 5 4 4 4 4 4
13 13 13 13 13 13 13 14 14 15 15 15 15 15 15 14 13 13 12 12 12 12 14 16 17 17 17 17 17 18 19 20 21 21 21 22 22 20 17 14 12 11 10 9 9 9 9 10 10 10 10 9 8 8 8 8 8 9 9 7 6 5 5 5 5 4 4 3 2 1 1 1 1 2 3 4 5 5 6 6 5 5 5 5 5
13 13 13 13 13 13 13 13 14 15 15 15 15 15 15 14 13 12 12 12 12 12 14 16 17 17 17 17 17 18 19 20 20 21 21 22 22 20 16 13 12 11 10 9 9 9 10 10 10 10 10 10 9 8 8 8 9 9 8 7 5 5 5 5 5 4 4 3 2 1 0 1 1 2 3 4 5 6 7 7 6 6 6 6 6
14 13 13 13 13 12 12 13 14 15 15 15 15 15 15 14 13 12 13 13 12 13 15 17 17 16 17 17 17 18 19 20 20 20 21 21 20 18 15 12 11 12 11 10 9 10 10 10 10 11 11 11 10 9 8 8 8 8 9 8 6 5 5 5 4 4 3 3 2 1 1 1 1 2 3 4 5 6 7 7 7 7 7 7 7
14 13 13 13 13 13 13 13 14 15 15 15 16 16 15 14 13 14 14 14 14 14 16 17 17 16 17 17 17 18 19 20 21 20 20 20 19 17 13 10 10 12 12 10 9 10 10 10 10 11 12 12 11 10 9 8 7 8 10 8 6 5 5 4 4 4 3 2 2 2 1 1 2 3 4 5 5 6 7 8 8 8 8 8 8
15 14 14 14 14 14 14 15 15 16 16 16 16 16 15 15 14 15 15 15 15 16 17 17 16 16 17 17 17 18 20 21 21 21 20 19 17 15 12 9 9 11 13 11 10 9 10 10 10 11 12 13 12 11 9 7 7 9 10 8 6 5 4 4 4 3 3 2 2 2 2 2 3 3 4 5 5 6 7 8 8 8 8 8 8
16 15 16 16 16 16 16 17 17 17 17 17 16 16 16 15 15 16 16 16 17 17 17 16 16 17 18 18 18 19 20 22 22 21 20 18 16 13 10 8 8 10 13 12 11 9 10 10 9 10 12 12 12 11 9 7 8 9 10 8 5 4 4 4 4 3 3 2 2 2 3 3 3 4 5 5 5 6 7 7 8 8 8 8 9
16 16 17 18 18 17 17 18 18 18 18 18 17 17 17 17 17 17 17 18 18 18 17 15 16 18 18 18 18 19 20 22 23 22 20 18 15 12 9 8 7 9 12 13 12 10 10 9 8 10 11 12 12 12 10 8 8 9 9 8 5 4 4 4 5 4 4 3 3 3 3 4 4 5 5 5 6 6 7 7 7 8 8 9 9
17 17 18 19 19 19 19 19 20 20 19 19 19 19 19 18 18 18 19 19 20 20 17 16 17 18 18 18 18 20 21 22 24 23 20 18 14 10 9 7 6 8 12 13 13 10 10 9 7 9 10 12 13 12 11 9 9 9 8 7 5 4 4 5 6 6 5 5 4 4 4 5 5 5 6 6 7 7 7 7 7 8 8 9 9
17 18 19 19 20 21 22 22 23 23 22 22 22 21 20 20 19 20 20 21 21 20 17 16 18 18 19 18 19 21 21 22 24 23 21 17 12 9 8 7 5 7 11 13 13 11 10 9 7 8 10 12 13 12 11 10 9 8 7 6 5 4 4 5 6 6 6 6 6 6 6 6 6 6 6 7 7 8 8 8 8 8 8 8 9
18 19 20 21 22 23 24 24 25 24 23 23 22 22 21 20 20 21 21 21 22 20 17 18 19 19 19 19 21 22 22 22 23 23 21 17 12 9 8 7 5 5 9 12 13 11 10 10 8 7 9 11 12 12 11 10 9 8 8 6 5 5 5 6 6 6 6 6 7 7 8 8 8 7 8 8 8 8 9 10 10 10 10 10 10
20 21 21 23 24 25 25 25 25 23 22 22 22 22 21 21 20 21 21 22 22 19 18 19 19 19 19 20 22 23 23 22 23 23 21 17 12 9 7 6 5 4 7 11 12 11 10 10 9 7 8 10 12 12 11 11 10 9 9 7 6 6 6 6 6 6 7 7 7 8 8 9 9 9 9 9 10 10 10 11 12 12 12 12 11
21 22 23 24 24 25 25 23 22 21 21 21 22 21 21 21 21 22 22 22 21 19 19 19 19 19 20 22 24 24 23 23 23 23 21 17 14 10 8 6 5 4 6 9 12 11 10 11 10 8 8 10 12 11 11 11 10 10 9 8 7 7 7 7 7 8 8 8 9 9 10 10 10 10 10 11 11 12 12 12 13 13 13 13 12
23 24 25 26 25 25 24 23 22 21 21 21 21 21 21 21 22 23 23 22 20 19 19 19 19 20 21 23 25 24 23 23 23 23 20 17 15 12 9 7 5 4 5 8 11 11 10 11 11 10 8 10 11 11 12 12 11 10 10 9 8 9 9 9 9 10 10 10 11 11 12 12 11 11 11 11 12 13 13 14 14 14 13 13 13
25 26 27 27 27 26 26 26 25 23 22 21 21 20 20 21 22 23 22 21 20 20 19 20 21 22 23 25 25 24 23 22 22 22 20 17 16 14 10 8 6 5 5 6 9 11 11 10 11 11 10 11 11 11 12 12 11 11 10 9 9 10 10 10 10 11 12 12 13 13 13 14 13 12 12 11 12 12 13 14 14 15 14 14 14
25 27 28 28 28 28 27 27 26 24 22 21 20 20 20 21 22 22 22 21 21 20 20 21 22 24 24 25 25 24 22 22 21 21 19 17 16 15 12 9 7 6 5 6 8 11 11 10 10 10 11 12 11 11 12 12 12 11 10 10 10 10 11 11 11 11 13 14 14 14 14 14 14 13 12 12 12 12 13 14 14 15 15 15 15
26 27 28 28 28 27 25 25 25 23 21 21 21 20 21 22 22 22 22 21 22 22 22 23 24 25 25 25 25 24 22 21 20 20 18 18 17 17 14 10 8 7 6 6 7 9 11 11 10 11 11 12 12 12 13 12 11 11 11 10 10 11 12 12 11 11 12 14 14 14 14 14 14 13 12 12 12 13 13 14 14 15 15 15 15
27 28 28 29 28 26 23 22 23 23 21 21 21 21 22 22 22 23 23 23 23 23 23 24 25 25 25 25 24 23 22 21 20 19 18 18 18 17 15 13 10 9 8 7 8 8 10 11 11 11 12 12 12 13 14 14 12 11 11 10 9 10 11 12 11 11 12 13 13 14 14 15 15 14 12 11 12 13 13 14 15 15 15 15 15
28 28 29 29 28 25 22 21 21 23 22 20 19 20 22 22 22 23 23 24 24 24 24 24 25 25 26 26 24 23 22 21 20 19 18 19 19 18 17 15 13 10 9 8 8 8 9 11 12 12 12 13 13 13 14 14 13 11 11 10 10 9 9 10 10 11 11 12 12 13 14 15 16 15 13 12 12 13 14 14 15 15 15 14 14
29 29 30 29 27 24 22 21 21 22 22 19 18 19 22 22 22 22 22 23 24 24 24 24 25 26 27 26 25 24 23 21 19 18 18 19 19 18 18 17 14 12 10 9 9 9 9 11 12 13 13 14 14 14 15 14 13 12 11 10 10 10 10 10 10 11 11 11 12 12 13 14 14 14 14 13 13 14 14 14 14 15 14 14 14
28 29 29 27 24 23 21 19 19 21 22 19 18 19 22 23 23 22 21 23 24 24 24 25 26 28 28 27 27 26 23 21 19 18 18 20 20 19 19 18 16 13 11 10 10 10 9 10 12 13 14 14 15 15 15 14 13 12 11 10 11 11 10 10 10 11 11 11 11 11 11 11 11 11 12 13 14 15 16 15 15 14 14 14 14
23 24 25 22 21 22 20 17 17 19 20 20 19 19 21 23 23 23 23 24 25 25 25 25 25 27 29 28 28 26 23 21 20 19 20 21 21 20 20 19 17 15 13 11 11 10 9 10 12 13 14 15 15 15 15 14 13 12 11 11 12 11 11 11 11 11 11 11 11 11 11 11 10 10 12 14 15 16 16 15 15 14 14 14 14
20 18 19 17 18 19 19 17 16 17 18 19 19 19 19 20 22 23 24 25 25 24 24 24 24 25 27 28 27 26 24 22 21 20 21 21 21 21 21 19 17 16 14 12 11 10 10 11 13 14 14 15 15 15 14 13 13 12 12 12 12 12 11 11 11 12 12 12 12 12 12 12 12 12 13 14 15 15 15 14 14 14 14 14 13
21 19 18 17 18 17 17 16 15 15 16 16 17 17 17 19 22 25 27 28 27 26 25 25 24 24 25 26 26 25 23 22 21 21 21 21 22 22 21 20 18 16 14 13 11 11 11 11 13 14 14 14 14 14 13 13 13 12 12 12 12 12 11 11 12 12 12 12 12 12 13 13 12 12 12 13 13 13 13 13 13 13 13 13 13
25 23 21 21 22 19 16 15 13 14 15 16 16 17 17 18 21 24 26 27 28 27 27 26 26 26 25 25 26 25 22 21 21 20 20 21 22 22 23 21 18 16 15 13 12 12 12 12 12 13 13 14 13 13 13 13 13 13 13 13 12 12 12 12 12 12 12 12 12 13 13 12 12 12 12 12 13 13 13 12 12 12 12 12 11
27 26 23 22 22 19 16 15 13 14 16 17 17 16 15 15 17 18 19 21 22 24 25 26 26 27 26 25 25 24 21 20 20 19 19 20 22 23 24 22 19 17 16 15 14 14 13 12 12 12 13 13 12 12 12 13 13 13 13 13 13 12 13 13 12 11 11 12 12 13 12 12 12 12 12 12 13 13 13 12 11 11 10 10 10
28 27 25 23 21 18 15 14 14 15 17 18 18 18 16 16 18 18 18 17 17 19 23 26 26 25 25 25 25 24 22 21 20 19 19 20 22 24 24 23 21 18 17 17 17 17 16 14 13 12 12 12 12 12 12 13 13 14 14 14 13 13 13 13 12 11 11 12 12 13 13 13 13 13 13 12 13 13 12 11 10 10 9 9 9
28 28 27 25 22 19 14 13 14 15 17 18 18 18 18 20 22 23 23 21 20 20 23 25 25 23 22 23 23 23 22 21 21 19 19 20 22 23 24 23 21 19 18 18 18 18 18 17 14 12 12 12 12 12 12 13 14 14 14 14 13 14 14 13 11 11 11 11 12 13 13 13 13 13 13 12 12 11 11 10 9 9 8 8 8
28 27 26 24 23 20 16 14 13 14 16 17 18 19 19 20 22 23 25 25 23 21 21 20 20 20 20 22 23 23 22 22 22 20 20 20 22 23 24 22 21 19 18 18 18 18 19 18 15 13 13 13 13 13 13 14 14 14 14 14 14 14 14 12 11 11 11 12 12 12 13 13 13 13 12 11 10 10 9 8 8 8 7 8 8
27 25 24 24 23 22 19 16 14 14 16 17 18 20 20 20 20 21 23 23 21 20 20 16 16 18 20 21 21 22 22 22 22 21 20 20 22 23 23 22 21 19 19 18 18 18 18 18 15 14 14 14 13 13 14 14 14 15 14 14 14 14 13 13 11 11 12 13 12 12 12 12 13 12 11 9 9 9 8 7 6 7 7 7 7
25 24 23 23 22 22 21 20 18 17 17 18 18 19 20 20 20 21 21 20 17 17 18 16 15 17 19 19 20 21 21 21 21 21 21 21 21 22 23 22 21 20 19 18 17 17 18 17 15 14 14 14 14 14 14 14 15 15 15 15 15 14 13 13 12 12 12 12 12 12 11 11 12 11 10 8 8 8 7 6 6 6 6 6 6
26 25 25 25 24 24 23 21 20 19 19 19 18 18 19 20 20 20 20 17 14 14 15 16 15 17 18 18 20 21 20 21 21 20 20 20 20 21 21 22 22 22 21 19 17 17 18 17 15 14 14 15 15 15 15 15 15 15 15 14 14 15 14 13 13 13 13 12 12 12 11 11 11 10 9 8 7 7 6 6 5 5 5 5 5
28 26 25 26 26 23 20 19 20 20 21 20 18 18 18 19 19 19 18 16 14 12 13 15 17 16 16 16 18 19 20 20 20 20 19 19 19 19 20 21 23 23 22 20 17 18 19 18 17 16 15 15 16 15 15 15 15 15 15 14 14 15 14 14 14 14 13 13 13 12 11 11 11 10 9 8 7 6 6 6 5 4 4 4 4
24 20 20 23 24 21 18 18 19 20 20 19 18 18 18 18 19 19 18 16 15 12 11 14 17 16 15 15 16 18 19 20 20 20 20 20 20 19 20 21 23 23 22 20 18 19 20 20 19 18 16 15 16 16 15 16 16 15 14 14 14 15 15 15 15 14 14 14 13 13 12 11 11 10 9 9 7 7 6 6 5 4 4 4 3
17 17 16 16 16 14 12 13 15 16 18 19 19 19 18 18 19 19 19 18 16 13 10 11 14 15 15 16 17 18 19 20 21 22 22 21 22 21 20 22 23 23 22 20 19 20 21 20 20 19 17 17 17 17 16 16 16 15 15 15 15 15 15 15 15 15 15 14 14 14 13 12 11 10 10 9 8 7 7 6 5 4 4 4 3
19 20 16 11 12 14 15 15 16 18 19 18 18 20 20 19 19 19 19 20 19 16 11 9 10 12 14 17 18 18 20 22 23 22 21 21 22 21 20 22 24 23 22 20 20 20 21 20 19 18 18 18 18 18 16 16 16 16 16 16 16 16 16 15 15 16 15 15 15 14 13 12 10 10 9 8 8 8 8 7 5 5 5 4 4
21 21 19 18 22 24 24 21 17 18 19 16 16 17 19 21 22 21 20 20 20 18 15 13 11 11 14 16 17 18 21 23 24 23 22 22 23 22 21 22 24 23 21 20 20 20 21 20 19 18 18 19 19 18 17 18 17 17 18 18 17 17 16 16 17 17 16 16 16 15 14 13 11 10 9 8 9 9 8 7 6 6 6 5 5
21 22 23 23 27 28 27 23 18 18 18 16 17 15 14 17 22 23 23 21 20 19 19 18 17 16 16 16 17 20 22 23 24 24 24 24 24 23 22 23 24 22 20 20 20 20 21 21 21 20 20 20 18 18 19 19 18 18 19 19 18 17 17 17 18 18 17 16 16 15 14 13 11 10 10 9 10 10 9 8 7 7 7 6 6
20 21 22 22 25 26 26 24 21 21 22 20 20 15 10 11 16 21 24 24 23 21 21 21 23 22 18 16 17 21 24 24 24 24 25 25 25 24 23 24 24 22 20 20 21 21 22 22 22 21 21 20 18 19 20 19 19 19 19 19 19 19 18 18 19 19 18 16 16 15 15 14 13 11 11 11 11 10 10 10 9 9 9 8 8
19 20 20 21 23 24 23 23 22 23 24 22 18 15 12 10 11 15 19 24 26 25 24 24 23 21 17 17 19 22 25 26 26 26 26 25 25 25 25 25 25 24 22 22 22 21 22 22 21 22 23 22 21 21 20 20 19 20 19 20 20 20 20 20 20 20 19 17 16 16 16 15 14 13 13 13 13 13 12 12 11 11 11 10 10
21 22 22 23 24 23 21 22 22 23 25 22 17 15 14 13 12 14 16 20 26 28 28 26 23 19 17 20 22 22 24 25 26 26 24 25 26 26 26 26 26 25 24 24 23 22 22 22 21 23 25 24 23 22 21 21 19 19 20 20 21 22 22 22 21 20 19 18 17 17 17 16 16 15 15 15 16 15 14 14 13 12 12 12 11
22 23 24 25 26 24 21 21 22 24 26 27 22 17 17 18 17 17 18 21 25 30 30 28 26 23 21 23 24 23 23 24 26 25 24 25 28 28 27 27 27 27 26 25 24 23 23 23 23 24 25 25 24 23 23 22 19 19 20 22 22 23 22 22 21 20 20 19 18 18 18 17 17 17 17 17 17 17 16 15 14 14 13 13 12
23 24 25 26 27 26 24 22 22 23 25 27 28 25 23 22 20 20 23 25 27 30 31 30 29 26 25 27 27 25 25 26 26 26 25 26 27 28 28 27 27 26 26 25 25 24 25 25 24 25 26 26 25 24 24 23 20 20 21 23 23 23 22 22 21 21 20 19 19 19 19 18 18 18 18 18 18 18 17 17 16 15 14 14 13
Wind_Direction
292 300 306 309 309 308 309 310 312 312 312 312 313 315 317 318 319 320 324 329 332 335 338 341 342 342 344 345 347 351 351 350 350 352 356 357 352 346 344 345 345 348 351 350 349 350 350 346 342 343 344 348 354 350 350 353 347 334 327 328 333 342 355 3 7 8 11 19 21 18 12 9 9 16 42 58 58 55 63 58 46 42 43 48 46
295 301 304 305 305 305 307 307 308 309 309 310 311 313 315 316 317 318 321 325 328 332 336 339 339 340 342 343 344 348 348 348 350 353 355 355 351 347 346 349 350 352 353 350 348 348 348 344 343 345 345 349 354 354 356 356 346 332 326 326 333 351 0 2 7 10 13 17 19 21 17 7 8 26 39 33 31 45 61 51 36 36 39 45 45
297 301 302 302 302 302 303 303 304 304 305 306 308 310 312 314 314 316 319 322 324 329 333 335 336 337 339 340 341 344 346 347 349 352 353 352 350 348 349 354 353 353 352 348 345 345 345 344 345 347 347 350 353 352 349 346 341 335 332 329 334 349 355 357 2 5 11 15 18 21 18 7 2 8 24 29 41 60 74 26 8 22 30 30 31
298 300 299 299 298 298 298 298 299 300 301 302 304 306 309 311 312 314 317 320 321 326 330 331 332 334 336 337 339 342 345 346 347 349 351 351 349 348 350 355 354 352 349 344 344 343 343 342 346 349 348 347 348 346 344 341 341 338 335 331 332 338 339 341 347 354 5 12 18 20 17 11 2 6 24 35 30 277 279 299 319 351 16 15 16
295 296 296 295 294 293 294 294 295 295 296 298 300 302 305 308 309 311 314 316 317 321 325 326 328 331 333 335 337 340 342 342 343 347 350 349 348 348 351 354 352 349 346 342 341 340 340 341 345 347 346 345 346 344 341 338 338 337 335 333 332 332 331 332 337 351 5 13 22 24 24 20 12 14 6 334 310 301 298 297 300 309 335 352 5
290 291 292 293 292 291 291 290 290 290 291 293 295 298 301 304 306 308 310 312 313 318 322 323 324 329 332 333 334 336 337 338 342 346 349 347 347 348 350 352 348 346 344 340 339 338 339 340 341 344 347 348 347 341 337 338 339 341 341 340 339 336 334 333 336 345 355 9 27 32 32 29 20 5 332 312 303 302 295 286 285 292 304 320 341
290 291 292 293 293 291 289 288 286 286 288 290 292 295 298 302 304 305 308 309 311 315 320 320 322 328 331 330 330 331 334 337 341 345 348 346 345 347 349 349 345 344 342 339 338 336 338 338 339 343 348 348 343 338 338 341 343 344 347 348 345 341 337 334 332 333 342 360 24 33 33 31 19 354 320 303 296 293 285 280 281 284 293 307 322
293 292 291 291 289 288 286 285 284 284 285 288 290 292 296 299 300 302 304 305 308 314 318 318 320 325 326 325 325 328 331 335 340 344 346 344 343 346 348 347 342 341 341 339 337 335 337 335 336 342 346 344 339 338 338 337 337 340 345 346 342 340 335 331 329 331 339 351 12 30 35 28 13 348 310 291 284 279 274 273 276 281 293 302 308
292 290 288 286 285 284 284 283 283 283 284 286 287 288 291 294 296 297 298 300 304 311 315 314 316 320 320 320 321 325 329 334 338 341 344 342 341 344 347 345 339 338 339 341 338 334 333 331 334 341 343 340 336 333 330 329 329 334 338 339 337 334 327 323 326 330 332 339 358 24 36 26 4 334 303 287 279 276 275 274 277 284 291 294 298
292 291 289 287 286 286 285 285 284 284 284 283 282 283 285 288 291 291 292 294 299 306 309 308 310 313 314 315 318 323 327 331 336 338 340 340 340 342 344 342 336 335 337 341 338 330 328 328 333 338 338 336 332 327 324 324 326 332 335 333 329 322 317 316 316 316 316 317 330 2 41 27 354 322 297 285 282 282 282 282 285 288 287 288 291
293 294 293 292 291 291 290 290 287 285 283 280 278 279 281 284 285 285 285 286 291 297 299 300 303 306 309 311 315 320 324 329 333 335 337 338 338 339 341 338 334 333 335 340 336 327 326 328 332 333 333 333 330 325 323 323 327 333 335 327 314 306 308 310 303 299 301 293 285 283 341 359 329 302 290 284 283 285 286 288 290 290 287 286 287
295 296 296 296 296 295 295 293 288 285 282 277 276 276 277 278 278 277 276 278 282 286 290 292 296 302 305 307 312 318 321 325 329 330 333 335 334 335 336 333 332 334 334 336 332 327 326 327 329 330 330 330 328 326 324 324 329 337 337 327 310 302 306 306 298 294 290 275 260 251 257 285 291 287 287 285 283 285 287 289 290 290 288 286 284
297 297 299 300 301 300 298 294 289 285 280 276 274 272 273 272 271 270 271 273 276 279 282 286 294 301 302 303 309 315 319 322 324 326 330 332 330 329 331 329 329 333 335 332 327 326 325 325 327 327 328 329 327 325 325 325 331 336 335 327 309 298 298 300 298 298 293 273 252 242 253 272 284 289 290 289 286 285 286 288 287 287 287 285 284
297 299 302 304 304 304 302 298 294 289 282 278 274 271 270 268 268 268 269 271 273 275 277 284 295 299 297 300 306 312 316 318 319 322 327 329 325 323 326 326 326 331 334 330 325 324 323 322 323 324 325 325 323 323 323 322 326 331 332 325 306 286 285 295 304 309 300 284 269 259 264 269 277 283 285 285 283 285 287 288 288 287 286 286 285
299 303 305 306 307 306 304 302 298 291 285 280 273 270 268 267 267 268 269 270 270 271 275 286 293 292 293 298 304 309 313 315 315 317 323 324 320 318 320 320 320 328 332 329 322 322 323 321 319 318 320 321 318 319 319 314 318 327 330 327 308 281 281 298 314 317 305 295 291 284 276 274 275 276 279 281 280 283 285 287 288 288 287 287 286
303 306 307 307 307 306 304 302 298 292 287 280 273 269 268 267 267 269 270 269 268 269 275 284 286 287 290 295 301 305 309 311 310 312 319 321 316 313 313 312 314 325 331 328 322 320 321 318 311 313 317 319 316 316 317 312 317 323 326 328 310 284 286 303 312 313 309 303 299 296 290 286 281 278 279 279 279 281 283 283 284 285 286 285 284
301 304 305 306 307 307 305 302 299 295 289 283 277 272 271 269 269 271 270 268 267 267 274 281 281 283 286 292 298 301 305 307 306 309 315 317 312 307 306 304 306 323 329 326 320 316 318 313 302 308 316 317 315 315 315 313 316 319 321 325 305 281 287 302 309 307 303 298 291 286 281 281 280 280 280 279 278 277 277 277 279 281 283 283 282
296 300 303 306 309 310 309 305 302 298 291 285 280 275 272 270 270 270 267 265 264 267 275 279 277 280 285 291 295 298 301 304 304 307 312 314 307 300 299 296 298 320 326 323 317 312 316 310 293 303 315 315 313 313 313 310 312 313 313 314 296 273 278 295 305 304 299 296 290 282 274 270 269 270 273 276 277 276 275 273 274 275 278 279 281
291 295 301 306 310 311 310 307 303 298 291 285 281 276 273 272 269 265 262 261 263 269 276 275 275 279 285 291 293 296 299 301 302 304 310 310 300 293 291 289 289 311 320 318 314 309 312 309 292 297 311 311 310 311 311 307 304 304 299 298 286 267 270 287 294 292 289 289 288 284 279 275 270 267 266 267 269 272 275 276 277 276 276 276 277
289 294 300 304 307 309 308 307 303 296 288 284 281 279 276 272 265 261 258 259 264 271 273 272 275 280 286 290 292 295 298 300 300 302 307 304 293 286 282 280 279 293 312 311 309 306 304 303 295 294 304 305 304 307 307 301 298 295 286 282 278 267 271 284 286 283 281 281 280 280 279 277 273 270 268 267 267 268 270 273 276 278 278 276 275
289 295 301 305 308 308 308 308 302 294 288 284 280 276 273 269 263 260 259 261 268 271 270 273 278 283 288 290 291 294 298 299 299 301 303 297 289 283 273 269 268 272 299 304 303 301 295 293 292 290 294 296 298 302 301 295 292 290 281 274 273 268 270 277 278 279 283 284 283 281 280 277 275 273 272 272 272 272 272 273 274 275 275 274 273
291 296 300 304 308 309 309 308 302 293 287 282 275 270 268 267 264 262 262 265 270 270 271 276 280 285 289 290 292 294 297 298 300 301 298 290 285 280 267 258 254 254 279 296 297 295 289 287 288 286 287 290 293 296 295 290 287 286 281 276 273 269 266 269 271 274 279 285 288 287 284 281 281 281 279 278 277 277 277 277 276 274 271 269 269
290 294 297 302 305 306 305 303 299 292 286 279 271 266 265 264 263 263 264 268 270 271 274 278 282 286 288 289 291 293 295 298 300 299 293 284 280 276 265 254 247 244 260 282 288 288 284 282 284 285 287 287 287 289 288 285 283 280 278 277 276 272 268 267 269 272 277 284 288 289 287 285 285 286 287 287 286 284 283 281 278 275 272 268 267
288 292 295 299 302 303 302 298 293 289 285 276 267 263 261 261 262 263 266 269 270 272 274 276 280 283 285 287 289 290 293 296 299 297 289 279 275 274 266 256 247 242 248 262 274 279 279 276 277 280 283 284 284 284 283 281 276 271 271 274 277 276 274 273 271 273 277 282 286 288 288 286 286 287 291 293 292 290 288 285 281 278 275 273 270
287 291 295 299 301 301 300 294 288 286 281 274 267 263 261 261 263 263 265 267 267 269 270 272 275 278 282 285 286 287 289 292 295 294 285 275 273 273 267 261 252 245 244 248 258 267 271 270 268 270 275 278 279 280 281 280 273 266 264 268 275 278 277 276 275 276 279 282 285 288 289 287 285 285 289 291 290 289 288 286 284 281 279 278 276
287 291 295 298 299 299 295 288 283 282 278 273 271 269 269 270 272 271 268 266 265 266 268 270 273 276 280 281 282 283 285 287 290 289 279 271 273 272 268 265 259 252 247 244 246 250 259 263 264 266 270 271 272 274 277 278 275 268 265 267 276 279 276 276 278 279 279 281 284 287 289 286 281 278 282 287 290 290 288 287 285 283 281 278 277
287 290 294 297 298 297 292 283 278 277 276 273 272 272 273 276 281 281 275 269 265 267 270 272 275 278 279 279 279 279 280 282 284 283 273 267 271 270 266 267 264 260 254 249 243 236 244 255 260 265 267 267 266 269 272 274 274 270 267 272 279 278 276 277 279 278 277 279 283 287 289 288 281 274 275 284 291 292 290 290 289 288 284 280 277
287 291 294 295 297 297 293 286 279 276 275 272 270 270 270 274 280 283 280 274 270 271 273 275 276 279 279 276 274 273 276 279 279 275 267 265 269 268 265 265 265 264 260 252 241 225 228 243 254 261 264 264 264 266 270 273 275 272 270 276 279 279 280 280 279 277 277 279 283 288 292 292 285 272 270 279 289 293 294 294 292 290 287 283 280
289 288 288 293 299 299 295 291 284 280 278 273 267 264 264 269 275 279 280 278 276 276 277 277 278 281 280 274 270 270 272 274 273 268 262 263 267 266 264 263 264 266 261 249 233 217 219 234 248 255 259 260 262 264 267 270 272 273 275 278 279 281 284 282 280 280 281 282 285 290 295 297 290 274 269 276 287 294 296 295 294 293 290 286 282
294 289 288 294 302 302 299 295 287 282 279 273 267 263 263 267 274 279 282 281 279 279 278 278 280 282 279 271 267 268 270 269 266 263 259 261 265 265 262 260 261 264 262 252 233 216 216 231 242 248 251 255 258 261 264 266 268 270 274 277 279 283 285 283 280 280 283 286 290 295 299 298 291 281 276 280 287 292 295 294 294 295 293 289 287
295 305 310 311 308 303 301 301 294 288 281 275 271 269 270 275 281 283 282 281 280 279 277 276 282 284 278 270 266 268 270 266 262 259 256 258 263 263 259 256 257 261 264 258 239 220 217 228 236 240 245 251 256 261 264 265 264 266 270 273 276 280 282 281 279 278 280 286 293 298 300 297 292 287 284 284 286 290 292 294 294 295 293 290 289
292 307 315 313 310 304 304 308 302 294 289 284 277 274 279 285 285 283 279 275 274 275 273 274 280 284 280 270 265 267 268 265 262 259 255 257 262 261 256 252 253 257 261 260 242 223 219 225 233 238 244 250 255 261 263 262 260 261 265 268 273 275 277 278 277 277 279 286 294 298 299 299 297 294 292 291 291 291 291 293 295 294 291 289 288
291 296 292 293 302 303 305 306 300 291 287 284 279 277 283 286 286 283 279 274 269 268 268 270 274 278 278 268 262 263 264 263 263 260 258 261 264 260 254 251 251 252 255 258 245 229 223 227 233 238 244 249 254 258 259 257 255 258 262 265 268 270 271 274 276 277 281 288 294 297 300 301 301 301 300 299 297 294 293 294 295 294 291 289 287
291 294 292 293 299 301 300 295 287 281 278 278 277 277 279 285 293 296 292 283 274 269 268 270 274 274 270 263 259 260 261 261 261 261 260 263 264 259 254 251 250 250 252 255 250 239 233 232 234 238 243 249 252 253 253 251 250 255 259 261 262 264 268 273 276 277 282 289 292 295 298 301 303 304 304 303 301 300 299 298 298 295 291 289 286
290 293 296 299 300 300 298 289 281 277 274 274 275 275 273 279 292 300 302 297 289 283 277 272 274 273 263 256 255 256 258 260 259 259 260 262 261 256 254 252 251 253 255 253 250 246 243 238 236 237 240 245 249 249 247 244 247 252 256 258 258 260 266 272 276 278 282 286 288 290 295 299 302 303 303 304 306 306 304 303 301 296 291 286 284
290 292 295 299 301 303 300 288 283 278 275 275 276 276 274 276 283 289 292 293 294 295 291 278 272 271 258 250 252 253 255 257 256 255 256 258 254 252 253 253 253 255 257 254 249 248 247 242 238 237 237 239 242 243 240 240 244 250 253 255 257 258 264 271 274 275 278 282 284 286 292 297 300 302 303 305 308 308 306 306 305 299 291 285 283
289 291 293 296 299 301 298 291 285 279 276 275 277 278 279 278 279 284 289 291 293 297 299 283 266 262 253 247 249 250 253 254 253 250 248 250 249 249 252 251 253 256 257 255 251 250 246 241 240 240 237 236 237 236 235 237 243 247 249 252 255 257 262 267 269 270 275 280 282 285 290 296 299 300 302 304 307 309 309 309 308 302 292 284 282
288 290 292 294 296 297 296 293 287 279 275 274 275 278 280 280 278 279 285 292 296 299 300 284 257 253 249 245 246 249 254 254 251 246 241 244 245 247 251 250 252 254 255 254 253 251 244 239 243 244 240 238 234 231 232 236 241 245 247 248 251 255 258 262 263 266 274 280 281 284 291 295 297 298 299 301 306 310 309 308 309 305 297 285 277
286 287 287 288 289 290 289 288 285 278 274 271 271 273 276 278 276 274 278 289 302 305 298 281 257 251 248 244 244 248 252 251 250 245 238 238 242 246 251 251 251 252 252 252 252 250 240 238 247 249 247 243 235 230 230 234 239 243 244 244 248 252 254 257 261 265 271 277 281 285 291 292 293 296 295 297 304 307 304 302 304 304 301 291 274
281 280 279 280 281 281 279 279 279 275 272 271 269 269 271 273 271 268 269 281 299 306 294 275 258 252 249 244 244 246 247 248 248 245 239 237 240 245 250 251 249 250 250 249 250 246 237 238 247 250 248 245 239 234 231 234 238 241 243 243 246 249 252 258 263 265 270 276 279 283 287 287 288 290 289 289 296 298 294 295 296 295 298 298 282
274 272 271 273 273 271 267 267 270 269 268 267 265 263 264 265 263 260 262 271 285 298 292 272 258 252 249 243 241 242 244 246 244 239 239 239 240 243 247 248 247 248 248 246 245 241 235 237 245 250 248 245 244 241 236 236 238 240 242 243 245 248 252 258 261 264 269 272 274 277 281 283 285 286 281 279 283 283 280 285 289 287 294 302 294
275 273 275 277 275 270 270 273 273 273 272 271 267 262 260 257 256 256 258 265 276 290 292 271 259 253 248 245 240 236 239 243 239 238 241 242 244 246 247 247 247 246 245 243 241 237 234 237 242 247 249 248 248 245 240 240 239 240 242 244 245 247 251 255 259 262 265 268 270 273 275 279 283 281 275 272 270 270 269 275 284 283 287 294 290
274 276 282 285 281 278 285 281 273 274 273 274 273 267 262 256 254 255 257 260 267 279 284 268 260 251 244 247 242 233 234 237 236 238 242 243 246 248 247 247 247 245 242 241 240 236 236 239 241 244 248 250 249 246 243 243 242 241 243 245 245 247 248 252 257 260 263 267 269 270 270 275 278 276 274 269 265 266 264 265 273 274 277 281 275
272 277 280 279 278 287 302 294 286 289 284 286 291 283 276 268 259 257 257 258 260 265 270 268 269 261 249 249 246 236 233 234 236 239 240 241 244 247 247 244 244 242 238 239 240 236 236 240 242 243 247 250 250 248 246 246 244 241 242 244 244 246 248 251 255 257 260 263 264 264 266 271 274 274 271 268 267 267 260 256 263 267 270 271 263
272 276 275 273 275 284 294 294 294 296 289 294 310 307 295 283 272 263 257 256 258 261 263 262 265 270 259 251 247 242 237 235 237 238 239 240 242 246 246 242 241 239 236 238 239 238 238 242 245 244 245 248 249 247 246 245 243 242 242 243 243 246 248 251 253 255 257 260 262 263 265 269 271 270 267 267 269 266 256 255 263 267 267 264 259
270 272 272 273 276 282 288 288 285 283 278 286 306 316 304 284 276 272 264 257 256 260 264 262 258 257 255 253 249 243 240 240 240 240 239 238 241 244 244 242 240 237 237 239 239 239 241 243 247 246 244 245 246 245 244 244 243 242 243 243 245 247 248 250 252 254 255 258 261 262 264 267 267 264 263 265 268 265 259 259 264 265 263 260 260
270 272 273 274 278 283 287 286 282 278 277 284 300 314 312 282 272 274 273 265 258 257 260 260 257 254 251 254 253 243 240 241 242 243 241 238 238 241 241 241 239 236 238 238 237 238 241 243 247 249 247 245 244 242 243 244 243 243 244 245 246 247 248 248 250 252 254 256 259 260 261 264 263 260 260 261 264 265 264 264 264 261 259 259 261
275 274 273 272 274 278 282 284 282 278 276 279 292 308 314 301 275 268 272 270 264 259 255 253 255 258 252 248 250 244 241 242 242 244 245 242 239 239 238 237 236 234 235 236 235 237 240 242 244 247 249 246 243 242 242 242 242 244 246 246 247 248 248 248 249 251 254 256 256 255 256 257 258 258 257 258 259 262 264 264 262 259 259 261 261
279 280 280 279 279 279 281 282 279 277 275 274 283 300 307 304 285 263 257 261 262 260 255 250 252 254 247 244 246 243 241 244 246 246 247 244 240 236 234 234 233 232 233 235 236 237 240 242 240 243 248 247 244 242 241 241 242 246 248 247 247 247 248 248 249 251 254 255 253 252 253 252 252 254 255 255 257 261 262 262 261 260 261 262 261
283 285 285 285 286 288 288 285 279 275 274 272 272 282 294 296 284 263 248 245 251 255 254 251 248 244 240 243 247 245 241 242 244 243 241 241 239 234 232 231 232 233 233 234 237 239 241 241 239 243 249 249 245 242 241 240 240 244 247 246 246 248 249 250 251 252 253 254 253 252 253 252 251 253 254 255 257 260 262 263 263 263 262 262 260
287 287 287 287 289 292 294 292 286 280 277 275 270 268 277 284 273 257 246 242 242 246 249 249 246 242 237 236 240 241 239 237 238 239 239 239 241 240 237 235 235 237 237 238 239 240 241 241 239 243 248 249 246 243 243 243 240 241 244 245 246 248 250 251 252 253 254 255 254 253 253 253 253 254 256 256 258 259 261 262 262 262 262 261 259
Height
5885 5885 5885 5885 5885 5885 5885 5884 5884 5883 5883 5882 5882 5881 5881 5881 5880 5879 5879 5878 5877 5876 5876 5875 5875 5874 5873 5873 5872 5872 5871 5870 5870 5869 5868 5867 5866 5865 5864 5863 5862 5862 5861 5860 5859 5859 5858 5857 5856 5856 5855 5854 5854 5854 5854 5854 5854 5853 5851 5850 5851 5851 5851 5850 5849 5849 5849 5848 5848 5848 5848 5848 5848 5848 5848 5848 5847 5848 5848 5848 5848 5848 5848 5849 5849
5884 5884 5884 5884 5884 5884 5883 5883 5882 5882 5881 5881 5881 5880 5880 5880 5879 5878 5878 5877 5877 5876 5876 5875 5874 5874 5873 5873 5872 5872 5871 5870 5869 5868 5867 5867 5866 5865 5864 5863 5862 5861 5860 5859 5859 5858 5857 5857 5856 5855 5854 5854 5854 5854 5854 5854 5854 5853 5852 5851 5851 5851 5850 5850 5850 5849 5849 5848 5848 5848 5848 5848 5848 5848 5848 5848 5848 5848 5848 5848 5848 5849 5849 5849 5849
5883 5883 5883 5883 5883 5882 5882 5882 5881 5881 5881 5880 5880 5879 5879 5879 5878 5878 5877 5877 5876 5876 5875 5875 5874 5874 5873 5873 5872 5871 5870 5869 5868 5867 5867 5866 5865 5864 5864 5863 5862 5861 5860 5859 5858 5857 5857 5856 5855 5855 5854 5854 5853 5853 5853 5853 5853 5853 5852 5851 5850 5850 5850 5850 5850 5850 5849 5849 5848 5848 5848 5848 5848 5848 5848 5848 5848 5848 5848 5849 5849 5849 5849 5849 5849
5882 5882 5882 5882 5881 5881 5881 5880 5880 5880 5879 5879 5879 5878 5878 5878 5877 5877 5877 5876 5876 5876 5875 5875 5874 5874 5873 5873 5872 5870 5869 5868 5868 5867 5867 5866 5865 5864 5863 5862 5861 5860 5859 5858 5858 5857 5856 5856 5855 5855 5854 5854 5853 5853 5853 5853 5853 5853 5852 5851 5850 5849 5849 5850 5850 5849 5849 5848 5848 5848 5848 5848 5848 5848 5848 5848 5848 5849 5849 5849 5849 5849 5849 5849 5849
5881 5881 5880 5880 5880 5880 5880 5879 5879 5879 5878 5878 5878 5877 5877 5877 5877 5877 5876 5876 5876 5875 5875 5874 5874 5873 5873 5872 5871 5870 5869 5868 5867 5867 5866 5865 5864 5863 5863 5862 5861 5860 5859 5858 5857 5856 5856 5855 5855 5855 5854 5854 5853 5853 5853 5853 5853 5853 5853 5852 5851 5850 5850 5849 5849 5849 5849 5848 5848 5848 5848 5848 5848 5848 5848 5848 5848 5849 5849 5849 5849 5849 5849 5849 5849
5880 5879 5879 5879 5878 5878 5878 5878 5878 5877 5877 5877 5877 5877 5877 5877 5876 5876 5876 5876 5875 5875 5874 5874 5873 5873 5873 5872 5871 5870 5869 5868 5867 5867 5866 5865 5864 5863 5862 5861 5860 5859 5858 5857 5856 5856 5855 5855 5855 5855 5854 5853 5853 5853 5853 5853 5853 5853 5853 5852 5851 5850 5850 5849 5849 5849 5849 5848 5848 5848 5848 5848 5848 5848 5848 5848 5849 5849 5849 5849 5849 5850 5850 5849 5849
5878 5878 5878 5877 5877 5877 5877 5877 5876 5876 5876 5876 5876 5876 5876 5876 5876 5876 5875 5875 5875 5874 5874 5873 5873 5873 5872 5872 5871 5870 5869 5868 5867 5866 5866 5865 5864 5863 5862 5861 5860 5859 5858 5857 5856 5855 5855 5855 5855 5854 5854 5853 5853 5853 5853 5853 5853 5853 5853 5852 5851 5850 5850 5850 5849 5849 5849 5849 5848 5848 5848 5848 5848 5848 5848 5848 5849 5849 5849 5849 5849 5850 5850 5849 5849
5877 5876 5876 5876 5876 5876 5875 5875 5875 5875 5875 5875 5875 5875 5875 5875 5875 5875 5875 5875 5874 5874 5873 5873 5872 5872 5872 5872 5871 5870 5868 5867 5866 5866 5866 5865 5864 5863 5862 5861 5860 5858 5857 5857 5856 5855 5855 5855 5854 5854 5853 5853 5853 5853 5853 5853 5853 5853 5852 5852 5851 5851 5850 5850 5849 5849 5848 5848 5848 5848 5848 5848 5848 5848 5848 5848 5848 5849 5849 5849 5849 5849 5849 5849 5849
5875 5875 5875 5875 5874 5874 5874 5874 5874 5874 5874 5874 5874 5873 5873 5873 5873 5874 5874 5874 5873 5873 5872 5872 5872 5872 5872 5871 5870 5869 5868 5867 5866 5866 5866 5865 5864 5863 5862 5861 5860 5858 5857 5857 5856 5855 5855 5855 5854 5854 5853 5853 5853 5853 5853 5853 5852 5852 5852 5852 5851 5850 5850 5849 5849 5848 5848 5848 5848 5848 5848 5848 5848 5848 5848 5848 5848 5849 5849 5849 5849 5849 5849 5849 5849
5874 5873 5873 5873 5873 5873 5873 5873 5873 5873 5872 5872 5872 5872 5872 5872 5872 5872 5873 5873 5872 5872 5871 5871 5871 5871 5871 5870 5869 5868 5867 5866 5866 5865 5865 5865 5864 5863 5862 5861 5859 5858 5857 5856 5856 5855 5855 5855 5854 5854 5854 5853 5853 5853 5852 5852 5852 5852 5852 5851 5851 5850 5850 5849 5849 5848 5848 5847 5847 5847 5847 5847 5848 5848 5848 5848 5849 5849 5849 5849 5849 5849 5849 5849 5849
5872 5872 5872 5872 5872 5872 5872 5872 5872 5871 5871 5871 5871 5871 5871 5871 5871 5871 5871 5871 5871 5871 5870 5870 5870 5870 5870 5869 5868 5867 5866 5865 5865 5865 5865 5864 5863 5863 5862 5861 5859 5858 5857 5856 5856 5855 5855 5854 5854 5854 5854 5854 5854 5853 5852 5852 5852 5852 5851 5851 5850 5850 5850 5849 5849 5848 5848 5848 5847 5847 5847 5847 5848 5848 5848 5848 5848 5848 5848 5848 5848 5848 5848 5848 5848
5870 5870 5870 5871 5871 5870 5870 5871 5870 5870 5870 5870 5870 5870 5870 5870 5870 5870 5869 5869 5869 5869 5869 5868 5868 5869 5868 5868 5866 5865 5865 5864 5864 5864 5864 5864 5863 5863 5862 5861 5859 5858 5856 5856 5856 5855 5855 5854 5854 5854 5854 5854 5854 5853 5852 5851 5851 5851 5851 5850 5850 5849 5849 5849 5849 5848 5848 5848 5847 5847 5847 5847 5847 5847 5848 5848 5848 5848 5848 5848 5848 5848 5848 5848 5848
5869 5869 5869 5869 5869 5869 5869 5869 5869 5869 5869 5869 5869 5869 5869 5868 5868 5868 5868 5868 5868 5868 5867 5867 5868 5868 5867 5866 5865 5864 5863 5863 5863 5863 5863 5863 5862 5862 5862 5861 5859 5857 5856 5856 5855 5855 5855 5854 5854 5854 5854 5854 5854 5853 5852 5851 5851 5851 5850 5850 5849 5849 5849 5849 5848 5848 5848 5848 5847 5847 5847 5847 5847 5847 5847 5847 5847 5847 5847 5848 5847 5847 5847 5847 5848
5867 5867 5867 5867 5868 5868 5868 5868 5868 5868 5867 5867 5867 5867 5867 5867 5867 5867 5867 5866 5866 5866 5866 5867 5867 5866 5866 5865 5864 5863 5862 5862 5861 5862 5862 5862 5861 5861 5861 5860 5859 5857 5856 5855 5855 5855 5855 5854 5854 5854 5854 5854 5853 5852 5852 5851 5851 5851 5850 5849 5849 5849 5849 5848 5848 5848 5848 5848 5847 5847 5847 5847 5847 5847 5847 5847 5847 5847 5847 5847 5847 5847 5847 5847 5847
5865 5865 5865 5866 5866 5866 5866 5866 5866 5866 5866 5866 5866 5866 5866 5866 5866 5866 5865 5865 5865 5865 5865 5866 5865 5865 5864 5863 5863 5862 5861 5860 5860 5861 5862 5861 5861 5860 5860 5860 5859 5857 5856 5854 5854 5855 5854 5854 5854 5853 5854 5854 5853 5853 5852 5851 5851 5850 5850 5849 5849 5849 5848 5848 5848 5848 5848 5847 5847 5847 5847 5847 5847 5847 5847 5847 5847 5847 5847 5847 5847 5847 5847 5847 5847
5864 5864 5863 5863 5863 5864 5864 5864 5864 5864 5864 5864 5864 5864 5864 5864 5864 5864 5864 5864 5864 5863 5864 5864 5864 5863 5862 5862 5861 5861 5860 5859 5858 5859 5860 5861 5860 5859 5859 5859 5858 5857 5855 5854 5853 5854 5854 5854 5853 5853 5854 5854 5853 5853 5852 5851 5851 5850 5849 5849 5848 5848 5848 5848 5848 5848 5847 5847 5847 5847 5847 5847 5847 5847 5846 5846 5846 5846 5847 5846 5846 5846 5846 5846 5846
5862 5862 5862 5861 5861 5862 5862 5862 5862 5862 5862 5862 5862 5861 5862 5862 5863 5863 5862 5862 5862 5862 5862 5863 5862 5861 5861 5860 5860 5859 5859 5858 5856 5857 5859 5859 5859 5858 5858 5858 5858 5857 5855 5854 5852 5852 5853 5853 5853 5853 5853 5853 5853 5852 5852 5851 5851 5850 5850 5849 5848 5848 5848 5848 5848 5848 5847 5847 5846 5846 5846 5846 5846 5846 5846 5846 5846 5846 5846 5846 5846 5846 5846 5845 5845
5861 5861 5861 5860 5860 5861 5861 5860 5860 5860 5860 5860 5859 5859 5860 5860 5860 5861 5860 5860 5860 5860 5861 5861 5860 5860 5859 5859 5858 5858 5858 5857 5856 5855 5857 5858 5858 5858 5857 5857 5857 5857 5855 5853 5852 5852 5852 5853 5852 5852 5853 5853 5852 5852 5852 5851 5851 5850 5850 5849 5849 5848 5848 5848 5848 5848 5847 5846 5846 5846 5846 5846 5846 5846 5846 5846 5846 5846 5846 5845 5845 5845 5845 5845 5844
5859 5859 5859 5860 5860 5859 5859 5859 5859 5859 5859 5858 5858 5858 5858 5858 5858 5858 5858 5858 5858 5859 5860 5859 5859 5858 5858 5857 5857 5857 5857 5856 5855 5854 5855 5856 5856 5857 5856 5856 5857 5856 5855 5853 5852 5852 5852 5852 5852 5852 5852 5852 5851 5851 5851 5851 5850 5850 5849 5849 5849 5848 5848 5848 5848 5847 5847 5846 5846 5846 5845 5845 5845 5845 5845 5845 5845 5845 5845 5845 5845 5844 5844 5844 5844
5858 5858 5858 5858 5858 5858 5857 5857 5857 5857 5857 5857 5857 5857 5857 5857 5857 5856 5856 5856 5857 5858 5858 5857 5857 5857 5856 5856 5855 5855 5856 5855 5854 5853 5853 5854 5854 5855 5855 5855 5856 5856 5854 5852 5851 5851 5852 5852 5851 5851 5852 5851 5851 5851 5851 5850 5850 5849 5849 5849 5849 5848 5848 5848 5847 5847 5846 5846 5845 5845 5845 5845 5845 5844 5844 5844 5844 5844 5844 5844 5844 5844 5843 5843 5843
5856 5856 5857 5856 5856 5856 5856 5855 5855 5855 5855 5855 5855 5856 5856 5856 5855 5855 5855 5855 5855 5856 5856 5856 5855 5855 5855 5854 5854 5854 5854 5854 5853 5852 5852 5852 5852 5853 5854 5854 5854 5855 5854 5852 5850 5851 5851 5851 5851 5851 5851 5851 5850 5850 5850 5850 5849 5848 5848 5848 5848 5848 5848 5847 5847 5846 5846 5845 5845 5845 5845 5844 5844 5844 5844 5844 5844 5843 5843 5843 5843 5843 5842 5842 5842
5854 5855 5855 5854 5854 5854 5854 5854 5853 5852 5852 5853 5853 5853 5854 5854 5854 5853 5853 5853 5854 5854 5854 5854 5854 5853 5853 5853 5852 5853 5853 5853 5853 5852 5851 5850 5850 5851 5852 5853 5853 5853 5853 5851 5849 5849 5850 5851 5850 5850 5851 5850 5850 5849 5849 5849 5848 5848 5848 5848 5847 5847 5847 5846 5846 5845 5845 5845 5844 5844 5844 5844 5844 5843 5843 5843 5843 5843 5842 5842 5842 5841 5841 5841 5841
5853 5853 5853 5853 5853 5852 5852 5852 5851 5850 5850 5850 5851 5851 5852 5851 5851 5851 5851 5852 5852 5852 5852 5852 5852 5852 5852 5851 5851 5851 5851 5851 5851 5850 5849 5849 5848 5849 5850 5851 5851 5851 5852 5851 5848 5847 5848 5849 5849 5849 5849 5849 5849 5849 5848 5848 5848 5847 5847 5847 5847 5846 5846 5845 5845 5844 5844 5844 5844 5843 5843 5843 5843 5843 5842 5842 5842 5842 5841 5841 5841 5840 5840 5840 5840
5851 5850 5850 5851 5851 5851 5850 5850 5849 5848 5848 5848 5849 5849 5850 5849 5849 5849 5850 5850 5850 5850 5850 5850 5850 5849 5849 5850 5849 5849 5849 5849 5849 5849 5848 5848 5847 5847 5848 5849 5850 5850 5850 5849 5848 5846 5846 5848 5848 5848 5848 5848 5848 5848 5848 5847 5847 5846 5846 5846 5846 5846 5845 5845 5844 5844 5843 5843 5843 5842 5842 5842 5842 5842 5842 5841 5841 5841 5840 5840 5840 5839 5839 5839 5839
5848 5848 5848 5848 5848 5848 5848 5847 5846 5846 5846 5846 5847 5847 5847 5847 5847 5848 5848 5848 5848 5848 5848 5848 5848 5847 5847 5847 5847 5847 5847 5847 5847 5847 5847 5847 5846 5845 5846 5847 5848 5848 5849 5848 5847 5845 5845 5845 5846 5847 5847 5847 5847 5847 5846 5846 5846 5846 5845 5845 5845 5845 5844 5844 5843 5843 5843 5842 5842 5841 5841 5841 5841 5841 5841 5840 5840 5839 5839 5839 5838 5838 5838 5838 5838
5845 5845 5845 5845 5846 5846 5845 5845 5844 5844 5843 5844 5844 5845 5845 5845 5846 5846 5846 5846 5846 5846 5846 5846 5846 5845 5845 5845 5845 5845 5845 5845 5845 5845 5845 5845 5845 5844 5844 5845 5846 5847 5847 5847 5846 5845 5844 5844 5844 5845 5845 5846 5846 5845 5845 5845 5845 5845 5845 5845 5845 5844 5844 5843 5843 5842 5842 5841 5841 5841 5840 5840 5839 5839 5839 5839 5839 5838 5838 5837 5837 5837 5837 5837 5837
5841 5842 5842 5843 5843 5843 5843 5843 5843 5842 5841 5841 5842 5843 5843 5844 5844 5844 5844 5844 5844 5844 5844 5844 5844 5844 5843 5843 5843 5842 5843 5843 5843 5843 5843 5843 5843 5843 5843 5843 5844 5845 5845 5845 5845 5844 5843 5843 5843 5843 5844 5844 5844 5844 5844 5844 5844 5844 5844 5844 5844 5844 5843 5843 5842 5842 5841 5841 5840 5840 5839 5838 5838 5838 5838 5838 5838 5837 5837 5836 5836 5836 5836 5836 5835
5838 5840 5841 5841 5841 5841 5841 5841 5841 5840 5840 5840 5841 5841 5841 5842 5842 5842 5842 5842 5842 5842 5843 5842 5842 5842 5841 5841 5840 5840 5840 5841 5841 5841 5841 5841 5841 5841 5841 5841 5842 5842 5843 5843 5843 5843 5843 5842 5842 5842 5842 5842 5843 5843 5843 5843 5843 5843 5843 5843 5843 5843 5842 5842 5842 5841 5841 5840 5840 5839 5838 5837 5837 5837 5837 5837 5837 5836 5836 5836 5835 5835 5835 5834 5834
5837 5838 5838 5839 5839 5839 5839 5840 5840 5839 5839 5839 5839 5838 5838 5839 5839 5840 5840 5840 5840 5840 5840 5840 5840 5839 5839 5838 5838 5838 5838 5839 5839 5839 5839 5839 5839 5840 5840 5840 5840 5840 5841 5841 5842 5842 5842 5841 5841 5841 5841 5841 5841 5841 5842 5842 5842 5842 5842 5842 5842 5842 5841 5841 5841 5841 5840 5840 5839 5838 5838 5837 5836 5836 5836 5836 5835 5835 5835 5834 5834 5834 5833 5833 5833
5835 5835 5836 5837 5838 5837 5838 5839 5839 5838 5837 5837 5836 5836 5836 5837 5838 5838 5838 5838 5838 5838 5838 5837 5837 5836 5836 5835 5836 5836 5836 5837 5837 5837 5837 5837 5837 5838 5838 5838 5838 5839 5839 5840 5840 5841 5840 5840 5840 5839 5839 5839 5839 5840 5840 5841 5841 5841 5841 5841 5840 5840 5840 5840 5840 5840 5839 5839 5838 5837 5837 5836 5835 5835 5835 5835 5835 5834 5834 5833 5833 5833 5832 5832 5831
5832 5834 5837 5838 5837 5836 5837 5838 5837 5837 5836 5835 5835 5835 5835 5836 5836 5836 5835 5835 5835 5835 5835 5834 5834 5833 5833 5833 5833 5834 5834 5835 5835 5835 5835 5835 5835 5835 5836 5836 5836 5837 5837 5838 5839 5839 5839 5839 5838 5838 5838 5838 5838 5838 5839 5839 5840 5840 5840 5839 5839 5839 5839 5839 5839 5839 5838 5838 5837 5836 5835 5835 5834 5834 5834 5834 5834 5833 5833 5832 5832 5831 5831 5831 5830
5830 5834 5837 5836 5834 5835 5835 5836 5836 5835 5835 5834 5834 5834 5834 5834 5833 5833 5832 5831 5831 5831 5831 5831 5831 5831 5830 5830 5831 5831 5832 5833 5833 5833 5834 5834 5834 5834 5834 5834 5834 5835 5835 5836 5837 5837 5837 5837 5837 5837 5837 5837 5837 5837 5837 5838 5838 5839 5839 5838 5838 5838 5838 5838 5838 5838 5837 5837 5836 5835 5834 5834 5833 5833 5833 5833 5832 5832 5832 5831 5830 5830 5830 5830 5829
5829 5832 5833 5832 5832 5833 5833 5834 5834 5833 5832 5832 5832 5832 5832 5832 5831 5829 5828 5827 5827 5827 5827 5827 5828 5828 5827 5828 5828 5829 5829 5831 5831 5832 5832 5832 5832 5832 5832 5832 5833 5833 5833 5833 5834 5835 5835 5836 5835 5835 5835 5835 5836 5836 5836 5836 5837 5837 5837 5837 5837 5837 5837 5837 5837 5837 5836 5835 5835 5834 5833 5833 5832 5832 5832 5832 5831 5831 5830 5829 5829 5829 5829 5829 5828
5829 5830 5830 5830 5831 5831 5832 5832 5831 5830 5830 5829 5829 5829 5830 5829 5828 5827 5825 5824 5824 5824 5824 5824 5824 5824 5824 5824 5825 5826 5827 5828 5829 5830 5830 5831 5831 5831 5830 5831 5831 5831 5831 5831 5832 5833 5834 5834 5834 5834 5834 5834 5834 5835 5835 5835 5835 5835 5835 5836 5836 5836 5835 5835 5836 5836 5835 5835 5834 5833 5832 5832 5832 5832 5831 5831 5830 5829 5829 5828 5828 5828 5827 5828 5828
5827 5828 5827 5828 5828 5829 5829 5829 5828 5828 5827 5827 5827 5827 5827 5827 5826 5825 5823 5822 5822 5822 5821 5821 5821 5821 5820 5821 5822 5824 5825 5826 5827 5827 5828 5829 5829 5829 5829 5829 5829 5829 5829 5829 5830 5830 5831 5832 5833 5833 5832 5832 5832 5833 5833 5834 5834 5834 5834 5834 5834 5834 5834 5834 5835 5835 5834 5834 5833 5832 5832 5831 5831 5831 5830 5830 5829 5828 5827 5827 5827 5827 5827 5827 5827
5826 5826 5826 5826 5826 5826 5827 5826 5826 5825 5825 5825 5825 5825 5825 5825 5823 5822 5821 5820 5820 5820 5819 5817 5817 5818 5817 5818 5819 5821 5822 5824 5825 5825 5826 5827 5827 5828 5828 5828 5828 5827 5827 5827 5828 5828 5829 5830 5830 5831 5831 5831 5831 5831 5831 5832 5832 5832 5832 5833 5833 5833 5833 5833 5834 5833 5833 5833 5832 5832 5831 5831 5830 5830 5829 5829 5828 5827 5827 5826 5826 5826 5826 5826 5826
5824 5824 5824 5824 5824 5823 5823 5823 5823 5822 5822 5822 5822 5822 5822 5822 5821 5820 5819 5818 5818 5817 5816 5814 5814 5814 5815 5815 5817 5818 5820 5821 5822 5823 5824 5825 5826 5826 5826 5826 5826 5826 5825 5825 5826 5826 5827 5827 5828 5829 5829 5829 5829 5829 5830 5830 5831 5831 5831 5831 5831 5831 5832 5832 5833 5832 5832 5832 5832 5831 5831 5830 5829 5829 5828 5828 5827 5827 5826 5826 5826 5825 5826 5826 5826
5822 5822 5821 5821 5821 5821 5820 5820 5820 5819 5819 5819 5819 5819 5819 5818 5818 5817 5816 5815 5815 5814 5813 5812 5811 5812 5813 5813 5814 5816 5817 5819 5820 5821 5822 5823 5824 5824 5824 5824 5824 5824 5823 5823 5824 5824 5825 5825 5826 5827 5827 5828 5828 5828 5828 5829 5829 5829 5830 5830 5829 5830 5830 5831 5831 5831 5831 5831 5831 5830 5830 5829 5829 5828 5827 5827 5826 5826 5826 5826 5825 5825 5825 5825 5826
5819 5819 5818 5818 5818 5818 5817 5816 5816 5815 5815 5815 5816 5816 5816 5815 5814 5814 5813 5813 5812 5811 5811 5810 5810 5811 5811 5811 5812 5813 5815 5816 5818 5819 5820 5820 5821 5822 5822 5823 5823 5822 5822 5821 5822 5822 5823 5824 5825 5825 5826 5826 5826 5826 5826 5827 5827 5828 5828 5828 5828 5828 5829 5829 5830 5830 5830 5830 5830 5829 5829 5829 5828 5827 5827 5826 5826 5825 5825 5825 5825 5825 5825 5825 5825
5816 5815 5815 5814 5814 5813 5813 5812 5812 5811 5811 5812 5812 5813 5813 5812 5811 5811 5810 5810 5809 5809 5809 5809 5809 5809 5809 5809 5809 5810 5812 5814 5816 5817 5818 5818 5819 5819 5820 5821 5821 5820 5820 5820 5820 5821 5821 5822 5823 5824 5824 5824 5825 5825 5825 5825 5826 5826 5826 5827 5827 5827 5827 5828 5828 5829 5829 5829 5828 5828 5828 5828 5827 5827 5826 5826 5825 5825 5825 5825 5825 5825 5824 5825 5824
5812 5810 5810 5809 5809 5808 5807 5807 5807 5807 5807 5807 5808 5809 5809 5808 5808 5807 5807 5807 5807 5806 5806 5807 5807 5807 5807 5807 5807 5808 5810 5812 5813 5815 5815 5815 5816 5817 5818 5818 5818 5818 5818 5818 5818 5819 5819 5821 5821 5822 5822 5823 5823 5824 5824 5824 5824 5824 5825 5825 5825 5825 5826 5827 5827 5827 5827 5827 5827 5827 5827 5827 5826 5826 5826 5825 5825 5825 5825 5825 5824 5824 5824 5824 5824
5811 5809 5807 5807 5807 5805 5804 5805 5805 5805 5805 5805 5806 5806 5806 5806 5805 5804 5805 5805 5804 5804 5804 5805 5806 5806 5805 5805 5805 5805 5807 5809 5810 5812 5812 5812 5813 5814 5815 5816 5816 5816 5816 5816 5816 5817 5817 5818 5819 5820 5821 5822 5822 5823 5823 5822 5822 5823 5823 5824 5824 5824 5825 5825 5825 5826 5826 5826 5826 5826 5826 5826 5826 5825 5825 5825 5824 5824 5824 5824 5824 5824 5824 5824 5824
5811 5809 5806 5806 5807 5805 5804 5805 5804 5804 5805 5804 5805 5805 5805 5804 5803 5803 5803 5803 5803 5802 5802 5802 5803 5804 5804 5803 5804 5804 5804 5805 5807 5808 5809 5809 5810 5811 5813 5813 5813 5813 5813 5813 5814 5815 5815 5816 5817 5818 5819 5820 5821 5821 5821 5821 5821 5821 5821 5822 5822 5823 5823 5823 5824 5824 5825 5825 5825 5825 5825 5825 5825 5824 5824 5824 5824 5824 5824 5824 5823 5823 5823 5823 5823
5808 5806 5805 5806 5806 5804 5803 5803 5804 5805 5805 5805 5806 5806 5805 5804 5802 5802 5802 5802 5801 5800 5800 5800 5801 5802 5802 5802 5802 5802 5802 5803 5804 5805 5806 5806 5807 5808 5811 5811 5810 5811 5811 5811 5811 5813 5814 5814 5815 5816 5817 5818 5818 5819 5820 5819 5820 5820 5820 5820 5820 5821 5821 5822 5823 5823 5823 5823 5823 5823 5824 5824 5824 5824 5823 5823 5823 5823 5823 5823 5823 5823 5822 5823 5823
5804 5803 5803 5803 5802 5801 5801 5801 5802 5803 5803 5804 5804 5804 5804 5803 5802 5801 5800 5800 5800 5799 5800 5799 5799 5800 5800 5799 5799 5799 5799 5799 5801 5802 5803 5804 5804 5806 5808 5808 5808 5809 5808 5808 5809 5810 5812 5813 5813 5814 5815 5815 5816 5817 5818 5818 5818 5818 5818 5818 5818 5819 5820 5821 5821 5821 5822 5821 5821 5822 5822 5823 5823 5823 5823 5823 5823 5822 5822 5823 5822 5822 5822 5822 5822
5801 5801 5800 5800 5799 5798 5798 5799 5800 5800 5799 5800 5800 5800 5801 5801 5801 5800 5799 5799 5798 5798 5799 5798 5797 5796 5796 5797 5797 5796 5796 5796 5796 5797 5799 5800 5801 5802 5804 5805 5806 5806 5806 5806 5807 5809 5810 5811 5811 5812 5813 5814 5814 5815 5816 5816 5817 5817 5817 5817 5817 5817 5818 5819 5819 5820 5820 5820 5820 5821 5821 5821 5822 5822 5822 5822 5822 5822 5822 5822 5822 5822 5822 5822 5822
5799 5799 5798 5798 5797 5796 5795 5796 5797 5797 5797 5798 5798 5798 5798 5798 5799 5799 5799 5799 5797 5797 5796 5795 5793 5792 5792 5794 5795 5794 5793 5793 5793 5793 5794 5796 5797 5799 5800 5801 5802 5803 5803 5804 5805 5807 5808 5808 5809 5810 5811 5812 5812 5813 5814 5814 5815 5815 5815 5815 5816 5816 5817 5817 5818 5818 5818 5819 5819 5819 5819 5820 5820 5820 5821 5821 5821 5821 5821 5821 5821 5821 5821 5821 5821
5796 5796 5795 5795 5794 5794 5793 5793 5794 5795 5795 5795 5796 5796 5795 5795 5796 5796 5797 5797 5796 5795 5792 5791 5790 5790 5791 5792 5791 5791 5791 5791 5791 5791 5792 5794 5796 5797 5797 5798 5799 5800 5801 5802 5803 5804 5806 5807 5808 5808 5808 5809 5810 5810 5812 5813 5813 5813 5814 5814 5814 5814 5815 5816 5816 5816 5817 5817 5817 5817 5818 5818 5818 5819 5819 5819 5820 5820 5820 5820 5820 5820 5820 5820 5820
5792 5792 5792 5792 5791 5792 5792 5792 5792 5792 5792 5792 5793 5793 5793 5793 5793 5793 5793 5793 5793 5792 5789 5788 5788 5789 5790 5789 5787 5787 5788 5789 5789 5790 5792 5793 5793 5794 5794 5795 5796 5797 5798 5800 5801 5802 5802 5804 5805 5805 5805 5806 5807 5808 5809 5810 5811 5811 5812 5812 5812 5813 5813 5814 5815 5815 5815 5815 5815 5815 5816 5816 5817 5817 5817 5817 5818 5818 5819 5819 5819 5819 5819 5819 5819
5790 5790 5789 5789 5789 5789 5790 5790 5791 5790 5790 5789 5789 5789 5790 5790 5790 5789 5789 5789 5788 5787 5786 5785 5785 5786 5786 5786 5785 5785 5785 5786 5786 5786 5788 5789 5789 5789 5791 5792 5793 5794 5796 5797 5799 5800 5799 5800 5802 5802 5803 5804 5805 5806 5807 5807 5808 5809 5810 5810 5811 5811 5812 5812 5813 5813 5813 5813 5813 5814 5814 5814 5815 5815 5815 5815 5816 5817 5817 5817 5818 5818 5818 5818 5818
5787 5787 5787 5787 5786 5787 5787 5787 5788 5787 5787 5786 5785 5785 5786 5786 5786 5785 5784 5783 5783 5782 5782 5782 5782 5783 5783 5782 5782 5782 5781 5781 5782 5782 5784 5785 5786 5787 5789 5790 5791 5792 5794 5795 5797 5798 5797 5797 5799 5800 5801 5801 5802 5803 5804 5805 5806 5806 5807 5808 5809 5810 5810 5811 5811 5811 5811 5811 5812 5812 5812 5813 5813 5813 5814 5814 5814 5815 5815 5816 5816 5816 5816 5817 5817